Bennettsville, SC

10:57 AM EDT on May 29, 2017 (GMT -0400)
Marlboro County-Avent

Weather History for KBBP - December, 2012

Change the Weather History Date:

Friday, December 21, 2012

  Actual Average (KFLO) Record (KFLO)
Temperature  
Mean Temperature 48 °F -  
Max Temperature 55 °F 57 °F 79 °F (2013)
Min Temperature 41 °F 36 °F 16 °F (1981)
Degree Days  
Heating Degree Days 17    
Moisture  
Dew Point 29 °F    
Average Humidity 52    
Maximum Humidity 67    
Minimum Humidity 35    
Precipitation  
Precipitation 0.00 in - - ()
Sea Level Pressure  
Sea Level Pressure 29.76 in    
Wind  
Wind Speed 17 mph (WSW)    
Max Wind Speed 25 mph    
Max Gust Speed 41 mph    
Visibility 10 miles    
Events      
Averages and records for this station are not official NWS values.
T = Trace of Precipitation, MM = Missing Value Source: NWS Daily Summary

Daily Weather History Graph

Daily Weather History Graph

Search for Another Location

Airport or City:

Trip Planner

Search our weather history database for the weather conditions in past years. The results will help you decide how hot, cold, wet, or windy it might be!

Date:

Astronomy

Dec. 21, 2012 Rise Set
Actual Time 7:22 AM EST 5:12 PM EST
Civil Twilight 6:54 AM EST 5:40 PM EST
Nautical Twilight 6:22 AM EST 6:11 PM EST
Astronomical Twilight 5:51 AM EST 6:42 PM EST
Moon 12:49 PM EST (12/21) 1:17 AM EST (12/21)
Length of Visible Light 10h 46m
Length of Day
9h 50m
Waxing Gibbous, 64% of the Moon is Illuminated
Dec 21
Waxing Gibbous
Dec 28
Full
Jan 4
Last Quarter
Jan 11
New
Jan 18
First Quarter

Hourly Weather History & Observations

Time (EST) Temp. Windchill Dew Point Humidity Pressure Visibility Wind Dir Wind Speed Gust Speed Precip Events Conditions
12:15 AM 55.4 °F - 44.6 °F 67% 29.62 in 10.0 mi WSW 18.4 mph 25.3 mph N/A   Scattered Clouds
12:35 AM 53.6 °F - 41.0 °F 62% 29.62 in 10.0 mi WSW 19.6 mph 31.1 mph N/A   Clear
12:55 AM 53.6 °F - 41.0 °F 62% 29.64 in 10.0 mi SW 21.9 mph 34.5 mph N/A   Clear
1:15 AM 50.0 °F - 35.6 °F 58% 29.66 in 10.0 mi WSW 23.0 mph 41.4 mph N/A   Clear
1:35 AM 48.2 °F - 32.0 °F 54% 29.67 in 10.0 mi WSW 23.0 mph 33.4 mph N/A   Clear
1:55 AM 46.4 °F 39.2 °F 32.0 °F 57% 29.67 in 10.0 mi WSW 18.4 mph 27.6 mph N/A   Clear
2:15 AM 46.4 °F 39.8 °F 32.0 °F 57% 29.68 in 10.0 mi WSW 16.1 mph 29.9 mph N/A   Clear
2:35 AM 46.4 °F 40.1 °F 32.0 °F 57% 29.68 in 10.0 mi WSW 15.0 mph 21.9 mph N/A   Clear
2:55 AM 46.4 °F 40.1 °F 32.0 °F 57% 29.68 in 10.0 mi WSW 15.0 mph 25.3 mph N/A   Clear
3:15 AM 46.4 °F 40.1 °F 32.0 °F 57% 29.69 in 10.0 mi WSW 15.0 mph 26.5 mph N/A   Clear
3:35 AM 46.4 °F 39.2 °F 32.0 °F 57% 29.69 in 10.0 mi WSW 18.4 mph 27.6 mph N/A   Clear
3:55 AM 44.6 °F 37.8 °F 32.0 °F 61% 29.69 in 10.0 mi WSW 15.0 mph 21.9 mph N/A   Clear
4:15 AM 44.6 °F 38.4 °F 32.0 °F 61% 29.69 in 10.0 mi WSW 12.7 mph 23.0 mph N/A   Clear
4:35 AM 44.6 °F 37.8 °F 32.0 °F 61% 29.69 in 10.0 mi WSW 15.0 mph 23.0 mph N/A   Clear
4:55 AM 44.6 °F 37.4 °F 32.0 °F 61% 29.69 in 10.0 mi West 16.1 mph 24.2 mph N/A   Clear
5:15 AM 44.6 °F 38.1 °F 32.0 °F 61% 29.69 in 10.0 mi West 13.8 mph 24.2 mph N/A   Clear
5:35 AM 44.6 °F 38.4 °F 32.0 °F 61% 29.70 in 10.0 mi WSW 12.7 mph 23.0 mph N/A   Clear
5:55 AM 44.6 °F 38.1 °F 32.0 °F 61% 29.70 in 10.0 mi WSW 13.8 mph 24.2 mph N/A   Clear
6:15 AM 44.6 °F 38.8 °F 32.0 °F 61% 29.70 in 10.0 mi WSW 11.5 mph - N/A   Clear
7:15 AM 44.6 °F 39.7 °F 32.0 °F 61% 29.72 in 10.0 mi SW 9.2 mph 18.4 mph N/A   Clear
7:35 AM 42.8 °F 35.8 °F 30.2 °F 61% 29.72 in 10.0 mi SW 13.8 mph 24.2 mph N/A   Clear
7:55 AM 44.6 °F 37.8 °F 30.2 °F 57% 29.72 in 10.0 mi WSW 15.0 mph 21.9 mph N/A   Clear
8:15 AM 44.6 °F 37.2 °F 30.2 °F 57% 29.72 in 10.0 mi WSW 17.3 mph 24.2 mph N/A   Clear
8:35 AM 44.6 °F 37.2 °F 30.2 °F 57% 29.73 in 10.0 mi WSW 17.3 mph 24.2 mph N/A   Clear
8:55 AM 44.6 °F 37.4 °F 30.2 °F 57% 29.73 in 10.0 mi WSW 16.1 mph 24.2 mph N/A   Clear
9:15 AM 44.6 °F 36.6 °F 32.0 °F 61% 29.73 in 10.0 mi WSW 19.6 mph 28.8 mph N/A   Clear
9:35 AM 44.6 °F 35.7 °F 32.0 °F 61% 29.74 in 10.0 mi WSW 24.2 mph 31.1 mph N/A   Clear
9:55 AM 46.4 °F 38.7 °F 30.2 °F 53% 29.75 in 10.0 mi WSW 20.7 mph 31.1 mph N/A   Clear
10:15 AM 46.4 °F 38.7 °F 30.2 °F 53% 29.75 in 10.0 mi WSW 20.7 mph 33.4 mph N/A   Clear
10:35 AM 46.4 °F 38.1 °F 30.2 °F 53% 29.76 in 10.0 mi WSW 24.2 mph 33.4 mph N/A   Clear
10:55 AM 46.4 °F 38.5 °F 30.2 °F 53% 29.76 in 10.0 mi West 21.9 mph 28.8 mph N/A   Clear
11:15 AM 46.4 °F 39.8 °F 28.4 °F 50% 29.76 in 10.0 mi WSW 16.1 mph 32.2 mph N/A   Clear
11:35 AM 48.2 °F - 28.4 °F 46% 29.75 in 10.0 mi WSW 20.7 mph 31.1 mph N/A   Clear
11:55 AM 48.2 °F - 30.2 °F 50% 29.75 in 10.0 mi West 18.4 mph 31.1 mph N/A   Scattered Clouds
12:15 PM 50.0 °F - 30.2 °F 47% 29.74 in 10.0 mi West 19.6 mph 29.9 mph N/A   Mostly Cloudy
12:35 PM 50.0 °F - 28.4 °F 43% 29.74 in 10.0 mi West 17.3 mph 28.8 mph N/A   Mostly Cloudy
12:55 PM 48.2 °F - 28.4 °F 46% 29.73 in 10.0 mi West 20.7 mph 29.9 mph N/A   Overcast
1:15 PM 50.0 °F - 28.4 °F 43% 29.73 in 10.0 mi West 21.9 mph 28.8 mph N/A   Overcast
1:35 PM 50.0 °F - 26.6 °F 40% 29.73 in 10.0 mi West 20.7 mph 31.1 mph N/A   Mostly Cloudy
1:55 PM 50.0 °F - 28.4 °F 43% 29.73 in 10.0 mi West 18.4 mph 31.1 mph N/A   Mostly Cloudy
2:15 PM 50.0 °F - 28.4 °F 43% 29.73 in 10.0 mi West 21.9 mph 27.6 mph N/A   Overcast
2:35 PM 50.0 °F - 26.6 °F 40% 29.74 in 10.0 mi West 25.3 mph 35.7 mph N/A   Mostly Cloudy
2:55 PM 50.0 °F - 26.6 °F 40% 29.74 in 10.0 mi West 23.0 mph 33.4 mph N/A   Overcast
3:15 PM 50.0 °F - 26.6 °F 40% 29.75 in 10.0 mi WNW 20.7 mph 31.1 mph N/A   Mostly Cloudy
3:35 PM 51.8 °F - 24.8 °F 35% 29.75 in 10.0 mi West 21.9 mph 38.0 mph N/A   Mostly Cloudy
3:55 PM 50.0 °F - 23.0 °F 35% 29.76 in 10.0 mi West 13.8 mph 35.7 mph N/A   Mostly Cloudy
4:15 PM 50.0 °F - 23.0 °F 35% 29.77 in 10.0 mi West 18.4 mph 27.6 mph N/A   Scattered Clouds
4:35 PM 50.0 °F - 23.0 °F 35% 29.79 in 10.0 mi West 20.7 mph 27.6 mph N/A   Clear
4:55 PM 48.2 °F - 23.0 °F 37% 29.80 in 10.0 mi West 15.0 mph 27.6 mph N/A   Scattered Clouds
5:15 PM 48.2 °F - 23.0 °F 37% 29.80 in 10.0 mi West 11.5 mph 29.9 mph N/A   Scattered Clouds
5:35 PM 46.4 °F 40.7 °F 24.8 °F 43% 29.81 in 10.0 mi West 12.7 mph 18.4 mph N/A   Scattered Clouds
5:55 PM 46.4 °F 41.1 °F 23.0 °F 40% 29.82 in 10.0 mi West 11.5 mph - N/A   Scattered Clouds
6:15 PM 46.4 °F 40.1 °F 24.8 °F 43% 29.83 in 10.0 mi West 15.0 mph 20.7 mph N/A   Scattered Clouds
6:35 PM 46.4 °F 41.5 °F 23.0 °F 40% 29.84 in 10.0 mi West 10.4 mph - N/A   Clear
6:55 PM 44.6 °F 38.8 °F 23.0 °F 43% 29.85 in 10.0 mi West 11.5 mph - N/A   Clear
7:15 PM 44.6 °F 39.2 °F 23.0 °F 43% 29.85 in 10.0 mi West 10.4 mph 21.9 mph N/A   Clear
7:35 PM 44.6 °F 39.2 °F 24.8 °F 46% 29.85 in 10.0 mi West 10.4 mph - N/A   Clear
7:55 PM 44.6 °F 39.2 °F 24.8 °F 46% 29.86 in 10.0 mi West 10.4 mph - N/A   Clear
8:15 PM 42.8 °F 38.6 °F 26.6 °F 53% 29.86 in 10.0 mi West 6.9 mph - N/A   Clear
8:35 PM 42.8 °F 40.1 °F 26.6 °F 53% 29.86 in 10.0 mi WSW 4.6 mph - N/A   Clear
8:55 PM 42.8 °F 38.6 °F 24.8 °F 49% 29.87 in 10.0 mi WSW 6.9 mph - N/A   Clear
9:15 PM 42.8 °F 39.3 °F 26.6 °F 53% 29.87 in 10.0 mi WSW 5.8 mph - N/A   Clear
9:35 PM 41.0 °F 36.4 °F 26.6 °F 57% 29.88 in 10.0 mi SW 6.9 mph - N/A   Clear
9:55 PM 41.0 °F 34.7 °F 26.6 °F 57% 29.88 in 10.0 mi WSW 10.4 mph - N/A   Clear
10:15 PM 41.0 °F 34.7 °F 26.6 °F 57% 29.88 in 10.0 mi WSW 10.4 mph - N/A   Clear
10:35 PM 41.0 °F 33.9 °F 26.6 °F 57% 29.89 in 10.0 mi West 12.7 mph - N/A   Clear
10:55 PM 42.8 °F 36.6 °F 26.6 °F 53% 29.89 in 10.0 mi West 11.5 mph 17.3 mph N/A   Clear
11:15 PM 41.0 °F 34.7 °F 26.6 °F 57% 29.89 in 10.0 mi West 10.4 mph - N/A   Clear
11:35 PM 41.0 °F 33.5 °F 26.6 °F 57% 29.89 in 10.0 mi West 13.8 mph 18.4 mph N/A   Clear
11:55 PM 41.0 °F 34.7 °F 26.6 °F 57% 29.90 in 10.0 mi West 10.4 mph - N/A   Clear